EA1GLE Weather Reports


Display with metric or nautical units.
time (UTC)temp
F
wind
direction
speed
MPH
gust
MPH
rain 1hr
in
rain 24hr
in
rain mn
in
humidity
%
barometer
mb
20260506170003 59 27 2.0 4.0 0.00 0.01 0.00 54 1013.7
20260506165403 58 36 2.0 3.0 0.00 0.02 0.00 54 1013.9
20260506164503 57 42 2.0 4.0 0.00 0.02 0.00 58 1013.9
20260506163603 58 44 2.0 3.0 0.00 0.02 0.00 56 1013.8
20260506162018 58 32 3.0 6.0 0.00 0.02 0.00 54 1013.8
20260506160903 58 39 2.0 6.0 0.00 0.02 0.00 53 1013.8
20260506160217 58 31 3.0 6.0 0.00 0.02 0.00 48 1013.9
20260506155617 58 34 2.0 4.0 0.00 0.02 0.00 48 1013.9
20260506154503 58 45 2.0 6.0 0.00 0.03 0.00 49 1014.0
20260506150903 61 315 3.0 7.0 0.00 0.12 0.00 48 1014.2
20260506150219 60 343 2.0 7.0 0.00 0.12 0.00 48 1014.2
20260506145403 61 310 1.0 3.0 0.00 0.12 0.00 47 1014.4
20260506144503 59 222 3.0 7.0 0.00 0.12 0.00 46 1014.4
20260506143603 59 33 1.0 4.0 0.00 0.12 0.00 49 1014.7
20260506142703 57 37 1.0 3.0 0.00 0.12 0.00 54 1014.6
20260506141803 56 26 3.0 8.0 0.00 0.12 0.00 56 1014.7
20260506140903 58 25 3.0 8.0 0.00 0.12 0.00 54 1014.8
20260506140003 61 308 3.0 8.0 0.00 0.12 0.00 53 1014.9
20260506135403 59 230 3.0 7.0 0.00 0.12 0.00 53 1014.8
20260506134503 59 210 3.0 6.0 0.00 0.12 0.00 52 1015.1
20260506131804 60 305 2.0 6.0 0.00 0.12 0.00 50 1015.3
20260506130903 59 328 3.0 6.0 0.00 0.12 0.00 54 1015.4
20260506130004 60 306 2.0 6.0 0.00 0.12 0.00 53 1015.2
20260506125403 60 268 2.0 7.0 0.00 0.12 0.00 56 1015.2
20260506123603 58 257 2.0 6.0 0.00 0.12 0.00 56 1015.2
20260506122917 57 284 3.0 7.0 0.00 0.12 0.00 55 1015.5
20260506121803 57 233 2.0 6.0 0.00 0.12 0.00 61 1015.4
20260506120903 55 251 3.0 6.0 0.00 0.12 0.00 63 1015.5
20260506120004 55 12 2.0 7.0 0.00 0.12 0.00 61 1015.6
20260506114503 58 260 3.0 8.0 0.00 0.12 0.00 59 1015.8
20260506113603 56 6 3.0 6.0 0.00 0.12 0.00 60 1015.7
20260506112917 55 48 2.0 4.0 0.00 0.12 0.00 59 1015.8
20260506111803 55 192 2.0 7.0 0.00 0.12 0.00 62 1015.9
20260506110003 53 301 2.0 6.0 0.00 0.12 0.00 65 1015.9
20260506105403 55 2 2.0 6.0 0.00 0.12 0.00 63 1015.9
20260506104503 55 8 2.0 6.0 0.00 0.12 0.00 64 1016.0
20260506103817 55 308 2.0 7.0 0.00 0.12 0.00 65 1015.8
20260506102919 55 216 2.0 6.0 0.00 0.12 0.00 68 1015.7
20260506100003 52 199 1.0 3.0 0.00 0.12 0.00 67 1016.2
20260506095403 53 162 1.0 3.0 0.00 0.12 0.00 70 1016.2
20260506094503 51 343 1.0 4.0 0.00 0.12 0.00 70 1016.2
20260506093603 51 314 2.0 4.0 0.00 0.12 0.00 73 1016.1
20260506092703 51 310 3.0 8.0 0.00 0.12 0.00 74 1016.1
20260506091803 54 242 1.0 6.0 0.00 0.12 0.00 73 1015.8
20260506090903 52 205 2.0 4.0 0.00 0.12 0.00 74 1016.0
20260506090003 50 241 2.0 7.0 0.00 0.12 0.00 78 1015.9
20260506085403 49 247 3.0 7.0 0.00 0.12 0.00 78 1016.1
20260506084504 50 263 2.0 4.0 0.00 0.12 0.00 76 1015.9
20260506083603 50 206 1.0 4.0 0.00 0.12 0.00 77 1015.9
20260506080903 49 172 0.0 2.0 0.00 0.12 0.00 83 1015.9
20260506071803 46 51 0.0 1.0 0.00 0.12 0.00 91 1015.8
20260506070903 45 119 0.0 1.0 0.00 0.12 0.00 92 1015.8
20260506061803 42 59 0.0 2.0 0.00 0.12 0.00 99 1015.7
20260506060903 40 43 1.0 3.0 0.00 0.12 0.00 99 1015.7
20260506050903 38 55 1.0 2.0 0.00 0.12 0.00 99 1015.3
20260506044503 39 62 1.0 2.0 0.00 0.12 0.00 99 1015.3
20260506043603 39 50 1.0 2.0 0.00 0.12 0.00 99 1015.3
20260506041803 39 58 1.0 2.0 0.00 0.12 0.00 99 1015.5
20260506040903 38 51 1.0 2.0 0.00 0.12 0.00 99 1015.6
20260506040003 38 55 1.0 2.0 0.00 0.12 0.00 99 1015.6
20260506035403 38 64 0.0 1.0 0.00 0.12 0.00 99 1015.8
20260506034503 38 0 0.0 0.0 0.00 0.12 0.00 99 1015.9
20260506031803 38 56 0.0 1.0 0.00 0.12 0.00 99 1015.7
20260506030903 38 50 1.0 2.0 0.00 0.12 0.00 99 1015.6
20260506030003 37 58 0.0 1.0 0.00 0.12 0.00 99 1015.6
20260506025403 37 53 0.0 1.0 0.00 0.12 0.00 99 1015.8
20260506024503 37 55 1.0 1.0 0.00 0.12 0.00 99 1015.7
20260506020903 36 0 0.0 0.0 0.00 0.12 0.00 99 1015.8
20260506020217 37 75 0.0 1.0 0.00 0.12 0.00 99 1015.6
20260506015404 37 62 0.0 1.0 0.00 0.12 0.00 99 1015.6
20260506014717 37 0 0.0 0.0 0.00 0.12 0.00 99 1015.7
20260506013603 37 0 0.0 0.0 0.00 0.12 0.00 99 1015.6
20260506011803 37 48 2.0 3.0 0.00 0.12 0.00 99 1015.6
20260506011117 38 51 1.0 2.0 0.00 0.12 0.00 99 1015.7
20260506010003 38 59 1.0 2.0 0.00 0.12 0.00 99 1015.8
20260506005403 38 56 1.0 2.0 0.00 0.12 0.00 99 1015.9
20260506004717 37 60 0.0 1.0 0.00 0.12 0.00 99 1015.7
20260506002703 38 52 0.0 1.0 0.00 0.12 0.00 99 1016.0
20260506001803 38 65 0.0 1.0 0.00 0.12 0.00 99 1015.8
20260506000903 38 60 0.0 1.0 0.00 0.12 0.00 99 1015.9
20260506000003 39 49 1.0 2.0 0.00 0.12 0.00 99 1016.0
20260505235617 39 52 0.0 2.0 0.00 0.12 0.00 99 1016.1
20260505233818 40 37 1.0 3.0 0.00 0.12 0.00 99 1016.1
20260505232703 40 90 0.0 1.0 0.00 0.12 0.00 99 1016.1
20260505231803 40 0 0.0 0.0 0.00 0.12 0.00 99 1015.9
20260505230903 41 58 0.0 1.0 0.00 0.12 0.00 99 1016.0
20260505230003 41 48 1.0 2.0 0.00 0.12 0.00 99 1015.8
20260505224717 41 0 0.0 0.0 0.00 0.12 0.00 99 1016.1
20260505223817 42 61 0.0 1.0 0.00 0.12 0.00 99 1016.3
20260505222918 42 0 0.0 0.0 0.00 0.12 0.00 98 1016.2
20260505221803 42 0 0.0 0.0 0.00 0.12 0.00 98 1016.3
20260505220903 42 0 0.0 0.0 0.00 0.12 0.00 98 1016.1
20260505214503 43 57 1.0 2.0 0.00 0.12 0.12 97 1016.3
20260505213603 43 56 1.0 3.0 0.00 0.12 0.12 98 1016.4
20260505212918 43 55 1.0 3.0 0.00 0.12 0.12 98 1016.4
20260505211803 42 45 0.0 2.0 0.00 0.12 0.12 98 1016.6
20260505210903 42 0 0.0 0.0 0.00 0.12 0.12 98 1016.5
20260505210003 43 0 0.0 0.0 0.00 0.12 0.12 98 1016.6
20260505205403 43 75 0.0 1.0 0.00 0.12 0.12 98 1016.5
20260505204717 43 54 0.0 2.0 0.00 0.12 0.12 97 1016.2
20260505203603 44 61 0.0 2.0 0.00 0.12 0.12 97 1016.1
20260505202703 44 65 0.0 1.0 0.00 0.12 0.12 96 1016.2
20260505200903 44 46 1.0 2.0 0.00 0.12 0.12 96 1016.3
20260505200217 44 45 1.0 1.0 0.00 0.12 0.12 96 1016.2
20260505195403 44 42 1.0 2.0 0.00 0.12 0.12 95 1015.9
20260505194503 44 33 1.0 2.0 0.00 0.12 0.12 95 1015.8
20260505193603 45 32 1.0 2.0 0.00 0.14 0.12 94 1015.7
20260505191803 46 41 1.0 2.0 0.00 0.20 0.12 91 1015.5
20260505190903 47 42 0.0 1.0 0.00 0.20 0.12 89 1015.3
20260505190003 48 65 0.0 1.0 0.00 0.20 0.12 86 1015.5
20260505185403 48 60 0.0 2.0 0.00 0.20 0.12 85 1015.5
20260505184718 48 57 1.0 1.0 0.00 0.20 0.12 84 1015.3
20260505183603 48 78 0.0 2.0 0.00 0.20 0.12 84 1015.3
20260505182703 48 93 0.0 2.0 0.00 0.20 0.12 84 1015.0
20260505181803 48 78 0.0 2.0 0.01 0.20 0.12 85 1015.2
20260505180903 48 96 0.0 3.0 0.01 0.20 0.12 87 1015.2
20260505180003 48 80 1.0 3.0 0.01 0.20 0.12 88 1015.2
20260505173603 48 60 3.0 8.0 0.02 0.20 0.12 93 1015.1
20260505172703 48 65 3.0 6.0 0.02 0.20 0.12 93 1015.1
20260505171803 46 57 3.0 7.0 0.01 0.19 0.11 92 1015.2
20260505170903 46 33 4.0 8.0 0.01 0.20 0.11 92 1015.3